Погода в Чите

Погода в Чите : погода сейчас, прогноз погоды и архив. Всё, что Вы хотите узнать о погоде в Чите!

Поиск расширенной информации на нашем сайте:

Другие новости

Новости СМИ2

Главная страница сайта

Новости сайта

03.07.2017

Напоминаем, что на нашем специализированном сайте Метеоцентр.Азия вы можете получить высокодетализированные автоматические прогнозы погоды по пунктам России, СНГ и мира в авиационном формате (включающие направление и скорость ветра, видимость, явления погоды, количество и форму облачности, нижнюю и верхнюю границу облачности).


Погода в Чите - сегодня

Время (UTC), дата Ветер
(°,м/с) 
Видим.   Явления Облачность Т
(°С)
Тd
(°С)
f(%) Тe
(°С)
Pmin
(гПа)
dP
(гПа)
Po
(мм)
O2
(г/м3)
Тmin Tmax R s Состояние
почвы
09 16.08.17 160 (Ю) 20000 м    8/4 600 м кучево-дожд., верхняя 
[Cb cap|Ci fib]
+26.8 +15.3 49 +38  1007.2  -1.3  701  254           
12 16.08.17 120 (ЮВ) 20000 м    8/4 600 м кучево-дожд., верхняя 
[Cb cap|Ci fib]
+23.8 +15.7 60 +36  1008.6  0.5  701  256    +27.1       
15 16.08.17 330 (СЗ) 50000 м    8/4 600 м кучево-дожд., верхняя 
[Cb cap|Ci fib]
+19.6 +16.9 84 +35  1009.6  701  260           
18 16.08.17 210 (ЮЗ) 50000 м    6/5 600 м кучево-дожд., верхняя 
[Cb cap|Ci fib]
+19 +16.7 87 +35  1009.8  701  260           
21 16.08.17 150 (ЮВ) 20000 м  {ливн. осадки}  10/6 600 м кучево-дожд., средняя, верхняя 
[Cb cap|Ac trans|Ci fib]
+18.9 +16.8 88 +34  1009.8  701  260           
00 17.08.17 360 (С) 4000 м  дымка{ливн. осадки}  10/6 600 м кучево-дожд., средняя 
[Cb cap|Ac As]
+18.4 +17.3 93 +35  1010.4  0.5  701  261  +18.1    0.7    влажная 
03 17.08.17 150 (ЮВ) 20000 м    10/6 600 м кучево-дожд., средняя, верхняя 
[Cb cap|Ac trans|Ci fib]
+21.8 +17.2 75 +37  1009.2  -0.3  701  258           
06 17.08.17 160 (Ю) 20000 м    9/8 600 м кучево-дожд., средняя 
[Cb cap|Ac trans]
+23.7 +17.7 69 +40  1007.1  -1.4  700  255           
09 17.08.17 150 (ЮВ) 20000 м  в посл. час ливневой дождь  10/8 600 м кучево-дожд., средняя, верхняя 
[Cb cap|Ac trans|Ci fib]
+24.4 +17.7 66 +40  1005.8  -1.1  699  255           
12 17.08.17 160 (Ю) 20000 м  {ливн. осадки}  10/6 600 м кучево-дожд., средняя, верхняя 
[Cb cap|Ac lent|Ci fib]
+22.5 +16.9 71 +37  1007  0.7  700  257    +25.2  0.0     
15 17.08.17 150 (ЮВ) 50000 м    6/0 средняя, верхняя 
[Ac trans|Ci fib]
+20.8 +17 79 +35  1008.1  0.6  700  258           
18 17.08.17 200 (Ю) 50000 м    3/0 верхняя 
[Ci fib]
+19.5 +17 85 +36  1008.6  0.2  700  259           
21 17.08.17 200 (Ю) 20000 м    8/3 1000 м средняя, верхняя 
[Sc|Ac trans|Ci fib]
+17.6 +16.2 92 +32  1009.3  0.1  700  261           
00 18.08.17 200 (Ю) 0500 м  туман  ?/?  
+17.3 +16.3 94 +31  1010.7  1.3  701  262  +16.8        сухая 
03 18.08.17 310 (СЗ) 20000 м  дым  10/3 1000 м средняя, верхняя 
[Cu med, cong|Ac trans|Ci fib]
+22.5 +17.9 75 +39  1008.7  -0.6  701  257           
06 18.08.17 260 (З) 20000 м  слаб. ливневой дождь  9/6 600 м кучево-дожд., средняя, верхняя 
[Cb cap|Ac trans|Ci fib]
+24.8 +16 58 +37  1006.7  -1.4  700  255           
09 18.08.17 190 (Ю) 20000 м  слаб. ливневой дождь  10/8 600 м кучево-дожд., средняя, верхняя 
[Cb cap|Ac trans|Ci fib]
+22 +16.4 71 +35  1007.9  0.4  700  257           
12 18.08.17 180 (Ю) 20000 м  слаб. ливневой дождь  10/9 600 м кучево-дожд., средняя 
[Cb cap|Ac As]
+20.5 +16.6 78 +34  1008.8  0.5  701  259    +27.1  0.5     
15 18.08.17 210 (ЮЗ) 50000 м  {ливн. осадки}  10/8 1000 м средняя 
[Sc diur, vesp|Ac As]
+18.9 +16.2 84 +33  1009.7  0.4  701  260           
18 18.08.17 тихо ()   50000 м  {ливн. осадки}  6/1 1000 м средняя, верхняя 
[Sc|Ac trans|Ci fib]
+17.3 +15.2 87 +28  1009.6  -0.6  701  262           
21 18.08.17 180 (Ю) 20000 м    9/0 средняя, верхняя 
[Ac As|Ci fib]
+17.7 +16 90 +31  1009.2  -0.2  700  261           
00 19.08.17 220 (ЮЗ) 10 км  дымка  10/5 1000 м средняя 
[Sc|Ac As]
+17.9 +16.3 90 +32  1008.9  0.1  700  261  +17.1    0.0    влажная 
03 19.08.17 360 (С) 20000 м  слаб. ливневой дождь  10/8 600 м кучево-дожд., средняя 
[Cb cap|Ac As]
+20.1 +12.3 61 +26  1008.1  -0.4  700  260           
06 19.08.17 070 (В) 20000 м  слаб. ливневой дождь  10/8 600 м кучево-дожд., средняя 
[Cb cap|Ac As]
+18.9 +14.6 76 +30  1006.9  -1.3  699  260           
09 19.08.17 040 (СВ) 20000 м  слаб. дождь{ливн. осадки}  10/6 600 м кучево-дожд., средняя 
[Cb cap|Ac As]
+15.3 +13.9 91 +25  1007.9  -1.3  699  264           
Время (UTC), дата Ветер
(°,м/с) 
Видим.   Явления Облачность Т
(°С)
Тd
(°С)
f(%) Тe
(°С)
Pmin
(гПа)
dP
(гПа)
Po
(мм)
O2
(г/м3)
Тmin Tmax R s Состояние
почвы

Для получения пояснительной информации подведите курсор к названию столбца.

ПОГОДА в Чите - архив

Всё, что Вы хотите узнать о погоде в Чите - удобно и подробно!

Выберите нужную дату (начиная с 1 января 2015* года) и нажмите кнопку "Найти".
Будут отображены архивные сводки погоды по пункту Чита, начиная с указанной даты.


Отображать данные в формате CSV (для использования в таблицах Excel)


Внимание! Наш архив погоды предназначен исключительно для личного некоммерческого использования в познавательных целях. Если Вам необходимы официальные справки о состоянии погоды (для производственных, юридических, коммерческих и т.п. целей), обращайтесь в органы Росгидромета.

*Примечание: данная дата относится к архиву по метеостанциям СССР (Россия, СНГ, Балтия).
Архив по метеостанциям Зарубежной Европы и Азии (кроме Китая) хранится 10 дней, по другим регионам земного шара (Китай, Африка, Америка, Австралия, Океания) - 1 день.

Чита - район местоположения метеостанции


Название, широта, долгота, высота метеостанции:
Чита (город) 52.1°ш. 113.3°д. 680 м над ур. моря [Российская Федерация]

Дополнительная информация

В oтличие oт бoльшинства пoгoдных сайтoв мы публикуем пoдрoбную метеoинфoрмацию в детальнoм прoфессиoнальнoм фoрмате.

Характеристики температуры и влажнoсти вoздуха измеряются на высoте 2 м в тени вдали oт зданий и деревьев.
Скoрoсть ветра измеряется на высoте 10 м (на урoвне рoста челoвека скoрoсть ветра ниже в 1.5-2 раза). Если метеoстанция нахoдится в гoрoде или в лесу, тo скoрoсть ветра занижена на 2-4 м/с пo сравнению с oткрытым местoм. Скoрoсть ветра над акватoриями крупных рек и oзёр, а также на вершинах хoлмoв на 2-5 м/с выше, чем в oбычных услoвиях.
Атмoсфернoе давление в разных тoчках местнoсти мoжет значительнo oтличаться oт давления на метеoстанции, в зависимoсти oт услoвий рельефа (при пoдъёме на 10 м давление пoнижается примернo на 1 мм рт.ст.).